Weather History for Truckee-Tahoe, CA

Change the Weather History Date:

Saturday, August 17, 2013

  Actual Average Record
Temperature  
Mean Temperature 60 °F -  
Max Temperature 84 °F 80 °F 90 °F (1951)
Min Temperature 37 °F 40 °F 28 °F (1974)
Degree Days  
Heating Degree Days 4    
Growing Degree Days 10 (Base 50)    
Moisture  
Dew Point 33 °F    
Average Humidity 45    
Maximum Humidity 75    
Minimum Humidity 15    
Precipitation  
Precipitation 0.00 in - - ()
Sea Level Pressure  
Sea Level Pressure 30.24 in    
Wind  
Wind Speed 3 mph (WSW)    
Max Wind Speed 16 mph    
Max Gust Speed 22 mph    
Visibility 10 miles    
Events      
Averages and records for this station are not official NWS values.
T = Trace of Precipitation, MM = Missing Value Source: NWS Daily Summary

Daily Weather History Graph

Daily Weather History Graph

Search for Another Location

Airport:

Trip Planner

Search our weather history database for the weather conditions in past years. The results will help you decide how hot, cold, wet, or windy it might be!

Date:

Astronomy

Aug. 17, 2013 Rise Set
Actual Time 6:15 AM PDT 7:52 PM PDT
Civil Twilight 5:47 AM PDT 8:21 PM PDT
Nautical Twilight 5:12 AM PDT 8:55 PM PDT
Astronomical Twilight 4:36 AM PDT 9:31 PM PDT
Moon 5:12 PM PDT (8/17) 2:24 AM PDT (8/17)
Length of Visible Light 14h 34m
Length of Day
13h 37m
Waxing Gibbous, 85% of the Moon is Illuminated
Aug 17
Waxing Gibbous
Aug 20
Full
Aug 28
Last Quarter
Sep 5
New
Sep 12
First Quarter

Hourly Weather History & Observations

Time (PDT) Temp. Windchill Dew Point Humidity Pressure Visibility Wind Dir Wind Speed Gust Speed Precip Events Conditions
12:15 AM 48.2 °F - 28.4 °F 46% 30.29 in 10.0 mi Calm Calm - N/A   Clear
12:35 AM 48.2 °F - 32.0 °F 54% 30.29 in 10.0 mi Calm Calm - N/A   Clear
12:55 AM 46.4 °F 45.2 °F 30.2 °F 53% 30.29 in 10.0 mi SW 3.5 mph - N/A   Clear
1:15 AM 44.6 °F - 28.4 °F 53% 30.29 in 10.0 mi Calm Calm - N/A   Clear
1:35 AM 48.2 °F - 32.0 °F 54% 30.29 in 10.0 mi Calm Calm - N/A   Clear
1:55 AM 42.8 °F - 28.4 °F 57% 30.29 in 10.0 mi Calm Calm - N/A   Clear
2:15 AM 44.6 °F 43.1 °F 32.0 °F 61% 30.29 in 10.0 mi West 3.5 mph - N/A   Clear
2:35 AM 46.4 °F - 30.2 °F 53% 30.28 in 10.0 mi Calm Calm - N/A   Clear
2:55 AM 44.6 °F - 28.4 °F 53% 30.28 in 10.0 mi Calm Calm - N/A   Clear
3:15 AM 39.2 °F - 28.4 °F 65% 30.27 in 10.0 mi Calm Calm - N/A   Clear
3:35 AM 39.2 °F - 28.4 °F 65% 30.28 in 10.0 mi Calm Calm - N/A   Clear
3:55 AM 44.6 °F - 32.0 °F 61% 30.28 in 10.0 mi Calm Calm - N/A   Clear
4:15 AM 41.0 °F - 32.0 °F 70% 30.28 in 10.0 mi Calm Calm - N/A   Clear
4:35 AM 39.2 °F - 30.2 °F 70% 30.28 in 10.0 mi Calm Calm - N/A   Clear
4:55 AM 42.8 °F - 32.0 °F 66% 30.27 in 10.0 mi Calm Calm - N/A   Clear
5:15 AM 39.2 °F - 28.4 °F 65% 30.28 in 10.0 mi Calm Calm - N/A   Clear
5:35 AM 37.4 °F 34.9 °F 28.4 °F 70% 30.28 in 10.0 mi South 3.5 mph - N/A   Clear
5:55 AM 37.4 °F - 28.4 °F 70% 30.28 in 10.0 mi Calm Calm - N/A   Clear
6:15 AM 39.2 °F - 32.0 °F 75% 30.28 in 10.0 mi Calm Calm - N/A   Clear
6:35 AM 39.2 °F - 30.2 °F 70% 30.28 in 10.0 mi Calm Calm - N/A   Clear
6:50 AM 37.4 °F - 28.4 °F 70% 30.29 in 10.0 mi Calm Calm - N/A   Scattered Clouds
7:50 AM 46.4 °F - 32.0 °F 57% 30.29 in 10.0 mi Calm Calm - N/A   Scattered Clouds
8:55 AM 55.4 °F - 32.0 °F 41% 30.29 in 10.0 mi Calm Calm - N/A   Scattered Clouds
9:55 AM 64.4 °F - 35.6 °F 34% 30.27 in 10.0 mi North 3.5 mph - N/A   Partly Cloudy
11:50 AM 80.6 °F - 32.0 °F 17% 30.25 in 10.0 mi SW 16.1 mph 20.7 mph N/A   Scattered Clouds
12:55 PM 82.4 °F - 35.6 °F 19% 30.22 in 10.0 mi WSW 15.0 mph 21.9 mph N/A   Scattered Clouds
2:55 PM 84.2 °F - 35.6 °F 18% 30.18 in 10.0 mi WSW 10.4 mph 18.4 mph N/A   Scattered Clouds
3:47 PM 84.2 °F - 32.0 °F 15% 30.17 in 10.0 mi West 11.5 mph 18.4 mph N/A   Scattered Clouds
4:50 PM 82.4 °F - 32.0 °F 16% 30.16 in 7.0 mi West 11.5 mph 16.1 mph N/A   Mostly Cloudy
5:45 PM 80.6 °F - 32.0 °F 17% 30.16 in 5.0 mi West 10.4 mph - N/A   Smoke
5:55 PM 80.6 °F - 32.0 °F 17% 30.17 in 5.0 mi West 11.5 mph 17.3 mph N/A   Haze
6:15 PM 78.8 °F - 35.6 °F 21% 30.16 in 8.0 mi West 12.7 mph 19.6 mph N/A   Clear
6:35 PM 77.0 °F - 37.4 °F 24% 30.16 in 10.0 mi West 11.5 mph - N/A   Clear
6:55 PM 77.0 °F - 39.2 °F 26% 30.17 in 9.0 mi West 5.8 mph 16.1 mph N/A   Partly Cloudy
7:15 PM 75.2 °F - 37.4 °F 25% 30.18 in 8.0 mi West 10.4 mph 16.1 mph N/A   Mostly Cloudy
7:35 PM 73.4 °F - 37.4 °F 27% 30.18 in 8.0 mi WNW 10.4 mph - N/A   Partly Cloudy
7:55 PM 73.4 °F - 37.4 °F 27% 30.19 in 10.0 mi WNW 6.9 mph - N/A   Clear
8:15 PM 71.6 °F - 37.4 °F 29% 30.19 in 10.0 mi West 8.1 mph - N/A   Clear
8:35 PM 68.0 °F - 35.6 °F 30% 30.19 in 10.0 mi SW 8.1 mph - N/A   Clear
8:55 PM 66.2 °F - 35.6 °F 32% 30.20 in 10.0 mi ESE 3.5 mph - N/A   Clear
9:15 PM 66.2 °F - 35.6 °F 32% 30.21 in 10.0 mi Calm Calm - N/A   Clear
9:35 PM 62.6 °F - 35.6 °F 37% 30.21 in 10.0 mi SSE 3.5 mph - N/A   Clear
9:55 PM 60.8 °F - 37.4 °F 42% 30.21 in 10.0 mi Calm Calm - N/A   Clear
10:15 PM 59.0 °F - 35.6 °F 42% 30.21 in 10.0 mi SSW 3.5 mph - N/A   Clear
10:35 PM 57.2 °F - 35.6 °F 44% 30.22 in 10.0 mi NE 3.5 mph - N/A   Clear
10:55 PM 57.2 °F - 35.6 °F 44% 30.21 in 10.0 mi South 4.6 mph - N/A   Clear
11:15 PM 55.4 °F - 35.6 °F 47% 30.21 in 10.0 mi Calm Calm - N/A   Clear
11:35 PM 55.4 °F - 35.6 °F 47% 30.21 in 10.0 mi Calm Calm - N/A   Clear
11:55 PM 51.8 °F - 35.6 °F 54% 30.21 in 10.0 mi South 3.5 mph - N/A   Clear